QPF
0.00 0.00 0.00 0.00 0.00 0.01 0.01 0.01 0.00 0.00 0.00 0.00 0.00 0.00 0.00 0.00 0.00 0.00 0.00 0.00 0.00 0.00 0.01 0.01 0.01 0.02 0.02 0.01 0.01 0.00 0.00 0.00 0.00 0.00 0.00 0.00 0.00 0.00 0.00 0.00 0.00 0.00 0.00
0.00 0.00 0.00 0.00 0.00 0.01 0.01 0.01 0.01 0.00 0.00 0.00 0.00 0.00 0.00 0.00 0.00 0.00 0.00 0.00 0.00 0.00 0.00 0.00 0.01 0.01 0.01 0.00 0.00 0.00 0.00 0.00 0.00 0.00 0.01 0.01 0.01 0.01 0.01 0.00 0.00 0.00 0.00
0.00 0.00 0.00 0.00 0.00 0.00 0.00 0.01 0.01 0.00 0.00 0.00 0.00 0.00 0.00 0.00 0.00 0.00 0.00 0.00 0.00 0.00 0.00 0.00 0.00 0.00 0.00 0.00 0.00 0.00 0.00 0.00 0.01 0.01 0.02 0.03 0.02 0.01 0.01 0.00 0.00 0.00 0.00
0.00 0.00 0.00 0.00 0.00 0.00 0.00 0.00 0.00 0.00 0.00 0.00 0.00 0.00 0.00 0.00 0.00 0.00 0.00 0.00 0.00 0.00 0.00 0.00 0.00 0.00 0.00 0.00 0.00 0.00 0.01 0.01 0.02 0.02 0.03 0.03 0.04 0.03 0.02 0.02 0.01 0.01 0.01
0.00 0.00 0.00 0.00 0.00 0.00 0.00 0.00 0.00 0.00 0.00 0.00 0.00 0.00 0.00 0.00 0.00 0.00 0.00 0.00 0.00 0.00 0.00 0.00 0.00 0.00 0.00 0.00 0.00 0.00 0.01 0.01 0.02 0.02 0.02 0.04 0.07 0.05 0.04 0.03 0.03 0.03 0.02
0.00 0.00 0.00 0.00 0.00 0.00 0.00 0.00 0.00 0.00 0.00 0.00 0.00 0.00 0.00 0.00 0.00 0.00 0.00 0.00 0.00 0.00 0.00 0.00 0.00 0.00 0.00 0.00 0.00 0.01 0.01 0.02 0.02 0.01 0.02 0.02 0.04 0.04 0.04 0.04 0.04 0.03 0.02
0.00 0.00 0.00 0.00 0.00 0.00 0.00 0.00 0.00 0.00 0.00 0.00 0.00 0.00 0.00 0.00 0.00 0.00 0.00 0.00 0.00 0.00 0.00 0.00 0.00 0.00 0.00 0.00 0.00 0.01 0.03 0.04 0.03 0.03 0.02 0.03 0.04 0.05 0.04 0.05 0.05 0.04 0.03
0.01 0.01 0.00 0.00 0.00 0.00 0.00 0.00 0.00 0.00 0.00 0.00 0.00 0.00 0.00 0.00 0.00 0.00 0.00 0.00 0.00 0.01 0.01 0.00 0.00 0.00 0.00 0.00 0.01 0.01 0.02 0.03 0.02 0.03 0.04 0.05 0.05 0.05 0.06 0.06 0.05 0.04 0.04
0.02 0.02 0.01 0.01 0.00 0.00 0.00 0.00 0.00 0.00 0.00 0.00 0.00 0.00 0.00 0.00 0.00 0.00 0.00 0.00 0.00 0.00 0.01 0.00 0.00 0.00 0.00 0.00 0.00 0.01 0.02 0.02 0.02 0.03 0.04 0.06 0.05 0.05 0.08 0.08 0.06 0.05 0.05
0.02 0.02 0.02 0.01 0.01 0.00 0.00 0.00 0.00 0.00 0.01 0.01 0.00 0.00 0.00 0.00 0.00 0.00 0.00 0.01 0.00 0.00 0.00 0.00 0.00 0.00 0.00 0.00 0.00 0.00 0.01 0.01 0.02 0.02 0.04 0.05 0.04 0.07 0.08 0.07 0.06 0.05 0.05
0.05 0.04 0.03 0.01 0.01 0.00 0.01 0.01 0.00 0.01 0.01 0.01 0.00 0.00 0.00 0.00 0.00 0.00 0.00 0.00 0.01 0.00 0.00 0.00 0.00 0.00 0.00 0.00 0.00 0.00 0.00 0.00 0.01 0.02 0.04 0.04 0.05 0.08 0.08 0.07 0.06 0.05 0.05
0.05 0.03 0.03 0.02 0.01 0.01 0.01 0.02 0.02 0.01 0.01 0.00 0.00 0.00 0.00 0.01 0.01 0.00 0.00 0.00 0.01 0.00 0.00 0.00 0.00 0.00 0.00 0.00 0.00 0.00 0.00 0.00 0.00 0.00 0.01 0.02 0.05 0.10 0.11 0.10 0.08 0.06 0.05
0.05 0.02 0.02 0.02 0.01 0.01 0.01 0.04 0.05 0.02 0.01 0.01 0.01 0.00 0.01 0.01 0.00 0.00 0.00 0.00 0.00 0.00 0.00 0.00 0.00 0.00 0.00 0.01 0.01 0.00 0.00 0.01 0.01 0.00 0.01 0.02 0.04 0.08 0.13 0.14 0.11 0.08 0.07
0.05 0.04 0.02 0.02 0.01 0.01 0.02 0.03 0.04 0.02 0.01 0.01 0.01 0.01 0.01 0.01 0.01 0.01 0.01 0.01 0.01 0.01 0.01 0.01 0.02 0.01 0.01 0.01 0.01 0.01 0.01 0.02 0.02 0.02 0.02 0.02 0.04 0.08 0.13 0.14 0.13 0.11 0.09
0.01 0.03 0.05 0.04 0.03 0.03 0.04 0.03 0.03 0.02 0.02 0.02 0.02 0.02 0.01 0.01 0.01 0.02 0.02 0.02 0.02 0.03 0.04 0.04 0.03 0.03 0.03 0.02 0.02 0.01 0.02 0.02 0.02 0.02 0.03 0.02 0.03 0.06 0.12 0.15 0.16 0.17 0.16
0.02 0.02 0.06 0.11 0.08 0.06 0.05 0.05 0.05 0.03 0.03 0.04 0.04 0.04 0.03 0.02 0.02 0.03 0.04 0.06 0.07 0.08 0.07 0.07 0.07 0.05 0.04 0.05 0.04 0.03 0.03 0.03 0.04 0.05 0.05 0.06 0.03 0.04 0.09 0.15 0.20 0.24 0.24
0.05 0.06 0.08 0.14 0.14 0.09 0.07 0.09 0.08 0.07 0.04 0.04 0.06 0.04 0.02 0.02 0.02 0.04 0.06 0.08 0.10 0.10 0.09 0.09 0.08 0.07 0.07 0.07 0.06 0.05 0.06 0.06 0.05 0.06 0.06 0.09 0.07 0.05 0.06 0.10 0.15 0.20 0.24
0.07 0.09 0.11 0.12 0.13 0.11 0.09 0.08 0.11 0.15 0.11 0.09 0.10 0.08 0.04 0.04 0.04 0.06 0.07 0.08 0.09 0.10 0.11 0.11 0.10 0.09 0.09 0.08 0.06 0.06 0.06 0.08 0.06 0.05 0.04 0.06 0.08 0.07 0.06 0.08 0.10 0.13 0.18
0.10 0.12 0.15 0.15 0.15 0.13 0.13 0.13 0.14 0.17 0.19 0.20 0.19 0.17 0.12 0.08 0.08 0.09 0.11 0.11 0.12 0.15 0.14 0.14 0.13 0.10 0.10 0.08 0.06 0.06 0.05 0.07 0.07 0.04 0.04 0.04 0.05 0.06 0.04 0.05 0.06 0.08 0.12
0.12 0.16 0.18 0.20 0.18 0.17 0.18 0.19 0.20 0.19 0.19 0.21 0.20 0.18 0.17 0.15 0.15 0.16 0.16 0.16 0.16 0.16 0.14 0.14 0.13 0.10 0.08 0.08 0.06 0.04 0.04 0.04 0.04 0.03 0.02 0.03 0.03 0.03 0.03 0.03 0.03 0.04 0.06
0.09 0.15 0.16 0.20 0.27 0.29 0.31 0.29 0.25 0.24 0.24 0.25 0.21 0.21 0.23 0.22 0.22 0.20 0.19 0.16 0.15 0.16 0.17 0.15 0.12 0.09 0.06 0.06 0.08 0.07 0.05 0.04 0.03 0.02 0.02 0.02 0.02 0.02 0.02 0.02 0.02 0.03 0.04
0.04 0.07 0.10 0.14 0.22 0.32 0.38 0.43 0.39 0.39 0.36 0.31 0.27 0.24 0.23 0.23 0.24 0.24 0.21 0.19 0.16 0.16 0.16 0.14 0.11 0.09 0.07 0.07 0.09 0.10 0.08 0.06 0.04 0.02 0.02 0.02 0.02 0.01 0.01 0.02 0.02 0.02 0.02
0.03 0.05 0.08 0.12 0.18 0.26 0.35 0.40 0.40 0.42 0.41 0.36 0.32 0.30 0.30 0.27 0.24 0.22 0.22 0.20 0.17 0.14 0.12 0.10 0.09 0.10 0.09 0.07 0.08 0.09 0.10 0.08 0.06 0.04 0.02 0.01 0.01 0.01 0.01 0.01 0.01 0.02 0.02
0.03 0.05 0.07 0.10 0.15 0.21 0.28 0.32 0.34 0.39 0.42 0.42 0.37 0.31 0.28 0.27 0.25 0.23 0.22 0.21 0.19 0.16 0.12 0.09 0.06 0.06 0.06 0.06 0.05 0.04 0.05 0.05 0.05 0.05 0.03 0.01 0.01 0.01 0.01 0.01 0.01 0.02 0.03
0.03 0.04 0.07 0.10 0.14 0.20 0.26 0.30 0.33 0.37 0.43 0.42 0.36 0.29 0.25 0.24 0.22 0.20 0.20 0.18 0.15 0.12 0.10 0.07 0.05 0.04 0.04 0.04 0.04 0.03 0.03 0.03 0.03 0.04 0.03 0.02 0.02 0.03 0.03 0.02 0.02 0.01 0.02
0.03 0.04 0.07 0.09 0.14 0.16 0.18 0.22 0.25 0.27 0.30 0.32 0.31 0.26 0.23 0.20 0.17 0.14 0.13 0.13 0.11 0.09 0.07 0.05 0.04 0.04 0.04 0.04 0.04 0.04 0.04 0.04 0.04 0.05 0.04 0.03 0.03 0.03 0.02 0.02 0.01 0.01 0.02
MSLP
1011.20 1011.38 1011.76 1012.30 1012.89 1013.44 1013.89 1014.20 1014.39 1014.50 1014.60 1014.77 1015.04 1015.41 1015.86 1016.33 1016.76 1017.09 1017.28 1017.35 1017.32 1017.24 1017.17 1017.14 1017.18 1017.28 1017.41 1017.55 1017.67 1017.75 1017.79 1017.81 1017.83 1017.88 1017.98 1018.12 1018.30 1018.49 1018.66 1018.81 1018.91 1018.97 1019.01
1011.19 1011.40 1011.81 1012.38 1013.00 1013.58 1014.03 1014.35 1014.53 1014.64 1014.75 1014.93 1015.21 1015.61 1016.08 1016.57 1017.01 1017.33 1017.52 1017.56 1017.51 1017.42 1017.35 1017.33 1017.40 1017.53 1017.69 1017.86 1017.98 1018.06 1018.08 1018.07 1018.07 1018.10 1018.20 1018.35 1018.55 1018.77 1018.97 1019.13 1019.24 1019.29 1019.31
1011.02 1011.26 1011.72 1012.32 1012.98 1013.59 1014.09 1014.44 1014.66 1014.80 1014.93 1015.12 1015.41 1015.80 1016.27 1016.73 1017.15 1017.44 1017.60 1017.64 1017.59 1017.51 1017.47 1017.50 1017.62 1017.80 1018.00 1018.18 1018.31 1018.36 1018.34 1018.28 1018.24 1018.24 1018.31 1018.46 1018.67 1018.91 1019.14 1019.32 1019.44 1019.49 1019.51
1010.74 1011.02 1011.52 1012.17 1012.87 1013.54 1014.10 1014.51 1014.79 1014.98 1015.14 1015.34 1015.63 1016.00 1016.43 1016.85 1017.22 1017.48 1017.61 1017.64 1017.62 1017.59 1017.61 1017.71 1017.89 1018.12 1018.35 1018.54 1018.65 1018.66 1018.59 1018.47 1018.37 1018.32 1018.36 1018.50 1018.70 1018.95 1019.19 1019.39 1019.53 1019.60 1019.63
1010.46 1010.78 1011.31 1011.99 1012.75 1013.47 1014.09 1014.58 1014.92 1015.17 1015.37 1015.60 1015.88 1016.22 1016.59 1016.96 1017.28 1017.50 1017.62 1017.67 1017.68 1017.72 1017.81 1017.98 1018.23 1018.50 1018.76 1018.93 1019.00 1018.96 1018.83 1018.64 1018.48 1018.38 1018.38 1018.49 1018.69 1018.94 1019.19 1019.41 1019.57 1019.66 1019.71
1010.25 1010.60 1011.16 1011.88 1012.66 1013.43 1014.10 1014.65 1015.06 1015.37 1015.62 1015.87 1016.14 1016.45 1016.78 1017.10 1017.37 1017.57 1017.69 1017.76 1017.83 1017.93 1018.10 1018.34 1018.63 1018.93 1019.17 1019.32 1019.34 1019.24 1019.03 1018.79 1018.57 1018.43 1018.40 1018.49 1018.68 1018.93 1019.19 1019.42 1019.59 1019.71 1019.78
1010.18 1010.55 1011.12 1011.84 1012.63 1013.41 1014.12 1014.72 1015.19 1015.55 1015.85 1016.12 1016.40 1016.69 1016.99 1017.27 1017.51 1017.70 1017.83 1017.94 1018.06 1018.22 1018.45 1018.73 1019.04 1019.33 1019.55 1019.64 1019.60 1019.44 1019.18 1018.89 1018.63 1018.47 1018.43 1018.51 1018.70 1018.95 1019.21 1019.44 1019.63 1019.76 1019.84
1010.23 1010.62 1011.17 1011.86 1012.63 1013.40 1014.12 1014.74 1015.25 1015.66 1016.00 1016.31 1016.60 1016.89 1017.18 1017.44 1017.67 1017.86 1018.01 1018.16 1018.32 1018.53 1018.78 1019.08 1019.37 1019.63 1019.79 1019.83 1019.73 1019.50 1019.21 1018.89 1018.63 1018.47 1018.45 1018.55 1018.74 1018.99 1019.25 1019.49 1019.67 1019.81 1019.90
1010.38 1010.75 1011.26 1011.90 1012.61 1013.34 1014.03 1014.65 1015.19 1015.64 1016.02 1016.37 1016.69 1017.00 1017.29 1017.55 1017.79 1017.99 1018.16 1018.34 1018.53 1018.76 1019.02 1019.29 1019.55 1019.75 1019.85 1019.82 1019.66 1019.40 1019.09 1018.78 1018.55 1018.42 1018.43 1018.56 1018.78 1019.04 1019.31 1019.54 1019.71 1019.83 1019.91
1010.52 1010.86 1011.32 1011.88 1012.52 1013.17 1013.82 1014.42 1014.96 1015.44 1015.87 1016.25 1016.61 1016.95 1017.26 1017.54 1017.79 1018.01 1018.21 1018.41 1018.62 1018.84 1019.09 1019.33 1019.53 1019.67 1019.69 1019.61 1019.41 1019.14 1018.84 1018.57 1018.38 1018.31 1018.37 1018.55 1018.79 1019.07 1019.33 1019.55 1019.70 1019.79 1019.86
1010.58 1010.88 1011.28 1011.76 1012.30 1012.88 1013.47 1014.04 1014.57 1015.07 1015.52 1015.95 1016.34 1016.71 1017.06 1017.36 1017.64 1017.88 1018.11 1018.32 1018.53 1018.75 1018.97 1019.17 1019.32 1019.40 1019.37 1019.25 1019.04 1018.78 1018.51 1018.29 1018.16 1018.16 1018.28 1018.49 1018.77 1019.05 1019.30 1019.49 1019.62 1019.68 1019.71
1010.50 1010.77 1011.11 1011.51 1011.97 1012.48 1013.00 1013.54 1014.06 1014.56 1015.03 1015.49 1015.91 1016.32 1016.69 1017.03 1017.33 1017.60 1017.84 1018.07 1018.29 1018.50 1018.70 1018.87 1018.98 1019.02 1018.97 1018.84 1018.64 1018.41 1018.20 1018.04 1017.98 1018.03 1018.20 1018.44 1018.72 1018.99 1019.22 1019.38 1019.46 1019.48 1019.47
1010.27 1010.52 1010.83 1011.18 1011.58 1012.03 1012.51 1013.00 1013.50 1014.00 1014.48 1014.94 1015.39 1015.81 1016.20 1016.57 1016.90 1017.20 1017.46 1017.71 1017.94 1018.16 1018.35 1018.51 1018.61 1018.65 1018.61 1018.50 1018.34 1018.16 1018.01 1017.91 1017.90 1017.99 1018.18 1018.42 1018.68 1018.93 1019.11 1019.22 1019.26 1019.23 1019.17
1009.91 1010.18 1010.48 1010.82 1011.21 1011.63 1012.08 1012.55 1013.02 1013.49 1013.96 1014.41 1014.86 1015.28 1015.69 1016.07 1016.42 1016.75 1017.05 1017.32 1017.58 1017.81 1018.02 1018.19 1018.31 1018.38 1018.38 1018.32 1018.22 1018.11 1018.02 1017.97 1018.00 1018.11 1018.28 1018.50 1018.72 1018.91 1019.04 1019.09 1019.06 1018.99 1018.88
1009.47 1009.79 1010.14 1010.52 1010.93 1011.36 1011.80 1012.26 1012.71 1013.15 1013.58 1014.00 1014.42 1014.83 1015.23 1015.62 1016.00 1016.35 1016.69 1017.00 1017.28 1017.55 1017.79 1017.99 1018.15 1018.27 1018.33 1018.35 1018.33 1018.29 1018.26 1018.26 1018.31 1018.41 1018.55 1018.72 1018.87 1018.99 1019.04 1019.03 1018.95 1018.82 1018.67
1009.02 1009.43 1009.87 1010.33 1010.80 1011.28 1011.75 1012.20 1012.63 1013.03 1013.41 1013.78 1014.16 1014.53 1014.92 1015.32 1015.71 1016.09 1016.45 1016.80 1017.12 1017.43 1017.70 1017.95 1018.16 1018.34 1018.48 1018.58 1018.64 1018.68 1018.71 1018.75 1018.81 1018.89 1018.99 1019.09 1019.17 1019.21 1019.19 1019.11 1018.97 1018.80 1018.62
1008.61 1009.13 1009.68 1010.26 1010.83 1011.38 1011.89 1012.36 1012.77 1013.13 1013.45 1013.77 1014.09 1014.43 1014.79 1015.18 1015.59 1016.00 1016.40 1016.78 1017.13 1017.46 1017.77 1018.05 1018.31 1018.54 1018.75 1018.92 1019.07 1019.18 1019.27 1019.35 1019.42 1019.48 1019.54 1019.58 1019.60 1019.57 1019.49 1019.36 1019.18 1018.98 1018.77
1008.29 1008.92 1009.59 1010.29 1010.97 1011.61 1012.19 1012.67 1013.07 1013.40 1013.67 1013.93 1014.20 1014.50 1014.85 1015.24 1015.66 1016.10 1016.52 1016.92 1017.30 1017.64 1017.95 1018.25 1018.53 1018.80 1019.06 1019.29 1019.51 1019.69 1019.84 1019.96 1020.05 1020.11 1020.14 1020.15 1020.12 1020.05 1019.94 1019.78 1019.59 1019.37 1019.15
1008.07 1008.78 1009.56 1010.37 1011.16 1011.89 1012.52 1013.04 1013.44 1013.75 1013.99 1014.21 1014.45 1014.73 1015.08 1015.48 1015.92 1016.37 1016.82 1017.23 1017.59 1017.92 1018.22 1018.50 1018.77 1019.04 1019.32 1019.60 1019.86 1020.10 1020.30 1020.47 1020.59 1020.67 1020.71 1020.72 1020.68 1020.60 1020.48 1020.33 1020.15 1019.95 1019.74
1007.97 1008.73 1009.57 1010.45 1011.32 1012.12 1012.81 1013.36 1013.78 1014.09 1014.32 1014.54 1014.77 1015.07 1015.43 1015.86 1016.33 1016.80 1017.26 1017.66 1018.01 1018.29 1018.54 1018.77 1019.00 1019.24 1019.51 1019.79 1020.08 1020.36 1020.61 1020.83 1021.00 1021.11 1021.19 1021.22 1021.20 1021.16 1021.07 1020.96 1020.81 1020.65 1020.48
1008.01 1008.74 1009.59 1010.49 1011.40 1012.24 1012.97 1013.56 1014.01 1014.35 1014.62 1014.86 1015.14 1015.47 1015.88 1016.36 1016.86 1017.36 1017.82 1018.21 1018.51 1018.74 1018.91 1019.06 1019.21 1019.40 1019.62 1019.89 1020.18 1020.48 1020.77 1021.02 1021.24 1021.41 1021.53 1021.60 1021.65 1021.65 1021.63 1021.58 1021.50 1021.40 1021.28
1008.20 1008.85 1009.63 1010.50 1011.39 1012.23 1012.99 1013.62 1014.12 1014.52 1014.85 1015.17 1015.52 1015.94 1016.42 1016.95 1017.51 1018.03 1018.49 1018.85 1019.09 1019.25 1019.33 1019.39 1019.45 1019.55 1019.72 1019.94 1020.22 1020.52 1020.82 1021.10 1021.36 1021.57 1021.74 1021.87 1021.97 1022.05 1022.10 1022.13 1022.13 1022.10 1022.05
1008.56 1009.07 1009.73 1010.50 1011.32 1012.14 1012.90 1013.57 1014.13 1014.61 1015.04 1015.47 1015.93 1016.45 1017.03 1017.64 1018.24 1018.79 1019.24 1019.56 1019.76 1019.83 1019.83 1019.79 1019.77 1019.79 1019.88 1020.05 1020.28 1020.56 1020.86 1021.15 1021.41 1021.65 1021.85 1022.03 1022.19 1022.33 1022.45 1022.55 1022.63 1022.69 1022.71
1009.08 1009.42 1009.92 1010.56 1011.29 1012.05 1012.80 1013.50 1014.13 1014.71 1015.26 1015.81 1016.40 1017.04 1017.71 1018.39 1019.03 1019.60 1020.04 1020.33 1020.47 1020.48 1020.41 1020.29 1020.19 1020.14 1020.17 1020.28 1020.47 1020.71 1020.97 1021.24 1021.49 1021.72 1021.93 1022.12 1022.31 1022.49 1022.66 1022.83 1022.97 1023.10 1023.18
1009.77 1009.92 1010.25 1010.74 1011.36 1012.05 1012.78 1013.51 1014.21 1014.89 1015.56 1016.24 1016.95 1017.69 1018.44 1019.18 1019.86 1020.42 1020.85 1021.10 1021.20 1021.16 1021.03 1020.87 1020.72 1020.62 1020.61 1020.67 1020.82 1021.01 1021.23 1021.45 1021.66 1021.85 1022.03 1022.20 1022.38 1022.57 1022.76 1022.96 1023.15 1023.32 1023.46
1010.60 1010.59 1010.76 1011.12 1011.62 1012.25 1012.95 1013.69 1014.45 1015.22 1016.00 1016.79 1017.59 1018.41 1019.22 1019.98 1020.66 1021.21 1021.61 1021.83 1021.89 1021.83 1021.67 1021.49 1021.32 1021.21 1021.18 1021.22 1021.33 1021.47 1021.64 1021.80 1021.94 1022.07 1022.19 1022.31 1022.45 1022.61 1022.79 1022.99 1023.19 1023.38 1023.54
Thickness
5809 5805 5792 5789 5787 5785 5784 5781 5780 5778 5776 5774 5772 5770 5767 5765 5764 5763 5762 5761 5760 5759 5758 5757 5756 5756 5755 5753 5752 5751 5750 5748 5747 5745 5743 5742 5740 5739 5738 5737 5738 5737 5733
5811 5803 5790 5787 5785 5782 5780 5779 5777 5775 5773 5771 5769 5767 5764 5762 5761 5760 5759 5757 5757 5756 5755 5754 5753 5752 5751 5750 5749 5748 5746 5745 5743 5742 5741 5739 5738 5736 5735 5734 5735 5735 5730
5807 5799 5789 5785 5782 5780 5778 5776 5774 5771 5770 5768 5765 5763 5762 5760 5758 5757 5755 5754 5753 5752 5752 5751 5750 5749 5748 5747 5746 5744 5743 5742 5741 5739 5739 5741 5737 5733 5731 5731 5730 5729 5727
5803 5795 5789 5782 5779 5777 5774 5772 5770 5768 5766 5764 5762 5760 5758 5756 5755 5754 5752 5751 5750 5749 5749 5748 5746 5746 5745 5744 5742 5741 5740 5739 5738 5738 5741 5741 5737 5731 5729 5727 5726 5725 5724
5799 5793 5786 5779 5776 5774 5771 5769 5767 5765 5762 5760 5758 5757 5755 5753 5752 5751 5750 5748 5747 5746 5745 5744 5743 5742 5741 5740 5739 5738 5737 5736 5736 5737 5741 5739 5735 5729 5727 5724 5723 5722 5721
5796 5791 5782 5776 5773 5770 5767 5765 5763 5761 5759 5757 5755 5754 5752 5750 5749 5748 5747 5745 5744 5743 5742 5741 5740 5739 5738 5737 5736 5735 5735 5734 5735 5741 5738 5736 5734 5727 5725 5723 5721 5720 5719
5793 5788 5779 5772 5769 5766 5764 5762 5759 5758 5755 5753 5752 5750 5749 5747 5746 5745 5744 5742 5741 5740 5739 5738 5736 5735 5735 5734 5734 5733 5733 5733 5737 5739 5737 5735 5733 5726 5723 5721 5720 5718 5717
5790 5785 5776 5768 5765 5762 5760 5758 5756 5754 5752 5750 5749 5747 5746 5744 5743 5742 5741 5739 5738 5737 5736 5735 5733 5733 5732 5732 5732 5731 5731 5731 5735 5738 5736 5735 5729 5725 5722 5720 5718 5717 5715
5787 5782 5774 5767 5762 5758 5756 5754 5752 5750 5749 5747 5746 5744 5742 5741 5740 5739 5738 5737 5736 5735 5733 5732 5731 5730 5730 5729 5729 5729 5729 5730 5735 5737 5735 5733 5727 5723 5721 5719 5717 5715 5714
5781 5778 5772 5768 5763 5758 5754 5750 5748 5746 5745 5743 5742 5741 5739 5738 5736 5735 5735 5734 5733 5732 5731 5730 5729 5728 5728 5728 5728 5728 5728 5729 5736 5737 5735 5732 5726 5722 5720 5718 5716 5714 5713
5774 5773 5770 5767 5763 5759 5755 5748 5745 5742 5740 5739 5738 5737 5736 5738 5737 5734 5735 5732 5731 5730 5729 5728 5727 5727 5727 5727 5727 5726 5727 5733 5738 5736 5733 5728 5724 5721 5719 5717 5715 5713 5712
5768 5769 5768 5765 5762 5759 5756 5748 5745 5742 5740 5739 5740 5737 5738 5740 5739 5738 5732 5729 5728 5728 5727 5727 5726 5726 5727 5731 5729 5727 5732 5734 5736 5735 5732 5726 5722 5719 5717 5715 5714 5712 5710
5767 5765 5765 5762 5761 5759 5755 5749 5747 5745 5741 5739 5740 5738 5738 5738 5736 5735 5732 5728 5728 5727 5729 5727 5727 5730 5732 5732 5733 5733 5733 5734 5734 5734 5731 5724 5720 5718 5716 5714 5712 5711 5709
5764 5762 5763 5759 5757 5755 5753 5749 5746 5745 5743 5742 5739 5737 5737 5736 5736 5736 5733 5733 5732 5731 5731 5731 5731 5731 5730 5729 5730 5731 5731 5730 5731 5729 5726 5721 5718 5716 5715 5713 5711 5709 5707
5762 5760 5760 5757 5754 5751 5748 5747 5745 5744 5742 5740 5738 5735 5735 5735 5734 5734 5732 5730 5731 5731 5729 5728 5729 5727 5727 5727 5727 5728 5727 5727 5726 5725 5724 5719 5716 5714 5712 5711 5710 5707 5705
5761 5759 5757 5754 5751 5747 5745 5744 5743 5742 5739 5738 5736 5734 5731 5732 5732 5730 5728 5726 5727 5727 5726 5725 5725 5723 5723 5724 5724 5723 5723 5723 5721 5719 5719 5716 5713 5711 5709 5707 5706 5705 5703
5757 5755 5753 5750 5748 5744 5743 5742 5741 5739 5736 5735 5733 5731 5729 5729 5728 5726 5727 5724 5724 5723 5722 5720 5720 5720 5720 5720 5719 5719 5718 5716 5716 5714 5713 5711 5710 5706 5704 5702 5702 5700 5699
5753 5750 5748 5747 5743 5741 5739 5738 5738 5735 5733 5730 5729 5727 5725 5725 5723 5722 5723 5722 5720 5719 5718 5717 5717 5716 5715 5715 5714 5713 5712 5709 5708 5707 5707 5705 5703 5701 5698 5696 5695 5694 5694
5747 5745 5742 5742 5739 5737 5735 5734 5732 5729 5727 5725 5722 5721 5720 5720 5718 5718 5718 5717 5716 5715 5714 5714 5713 5712 5709 5708 5707 5706 5705 5703 5701 5700 5698 5696 5694 5692 5691 5688 5687 5686 5685
5740 5738 5737 5735 5733 5731 5729 5726 5724 5722 5721 5719 5716 5715 5714 5713 5714 5714 5713 5711 5711 5711 5709 5708 5706 5705 5703 5702 5702 5700 5698 5696 5694 5692 5691 5689 5686 5684 5682 5681 5679 5677 5675
5732 5731 5731 5729 5727 5725 5723 5721 5718 5715 5714 5713 5710 5709 5708 5708 5708 5708 5706 5705 5705 5704 5703 5702 5700 5698 5697 5697 5695 5691 5689 5688 5686 5683 5681 5679 5677 5675 5673 5671 5670 5668 5666
5724 5724 5725 5724 5724 5723 5722 5718 5716 5712 5709 5706 5704 5703 5702 5701 5701 5700 5699 5698 5697 5696 5694 5693 5693 5693 5692 5690 5690 5686 5680 5677 5675 5673 5671 5668 5666 5665 5663 5661 5658 5656 5654
5714 5715 5717 5718 5719 5719 5718 5715 5710 5705 5701 5697 5696 5694 5693 5693 5692 5692 5690 5690 5688 5688 5687 5685 5685 5685 5684 5682 5682 5682 5678 5673 5669 5662 5659 5657 5655 5654 5652 5648 5646 5644 5642
5703 5707 5709 5711 5712 5712 5712 5709 5704 5699 5694 5690 5689 5685 5683 5683 5681 5680 5680 5679 5678 5678 5677 5677 5677 5678 5677 5675 5673 5672 5671 5671 5666 5658 5651 5647 5644 5641 5639 5637 5634 5631 5629
5691 5696 5699 5702 5704 5705 5704 5703 5699 5694 5689 5684 5680 5677 5673 5671 5670 5669 5668 5668 5668 5667 5667 5667 5667 5668 5668 5667 5665 5663 5661 5659 5658 5654 5645 5638 5634 5630 5627 5625 5623 5620 5617
5680 5684 5687 5690 5692 5694 5695 5694 5692 5687 5681 5676 5672 5668 5664 5661 5659 5658 5656 5656 5655 5656 5655 5655 5655 5655 5654 5653 5652 5651 5651 5649 5647 5644 5638 5630 5626 5620 5617 5614 5612 5609 5606